Regional Weather Roundup
Issued by NWS

Home | Current Version | Previous Version | Text Only | Print | Product List | Glossary On
Versions: 1 2 3 4 5 6 7 8 9 10 11 12 13 14 15 16 17 18 19 20 21 22 23 24 25 26 27 28 29 30 31 32 33 34 35 36 37 38 39 40 41 42 43 44 45 46 47 48 49 50
000
ASUS43 KLOT 270303
RWRIL

ILLINOIS REGIONAL WEATHER ROUNDUP
NATIONAL WEATHER SERVICE CHICAGO/ROMEOVILLE IL
1000 PM CDT TUE JUL 26 2016

NOTE: "FAIR" INDICATES FEW OR NO CLOUDS BELOW 12,000 FEET WITH NO
SIGNIFICANT WEATHER AND/OR OBSTRUCTIONS TO VISIBILITY.

* THESE STATIONS ARE NOT UNDER NWS QUALITY CONTROL. THEY ALSO MAY NOT
  REPORT WEATHER SUCH AS PRECIPITATION OR FOG.

ILZ001-002-007-009-015-016-024-270400-
NORTHWEST ILLINOIS

CITY           SKY/WX    TMP DP  RH WIND       PRES   REMARKS
MOLINE         CLEAR     72  67  84 CALM      30.01R
STERLING*      CLEAR     71  68  90 CALM      30.02S
SAVANNA*       CLEAR     72  69  92 CALM      30.01S
$$

ILZ003-004-008-010-011-017-018-270400-
NORTH CENTRAL ILLINOIS

CITY           SKY/WX    TMP DP  RH WIND       PRES   REMARKS
ROCKFORD       CLEAR     76  66  71 CALM      30.02F
FREEPORT*      CLEAR     69  66  90 CALM      30.04S
ROCHELLE*      CLEAR     69  67  93 CALM      30.03S
DE KALB*       CLEAR     73  65  77 CALM      30.03S
$$

ILZ005-006-012>014-019>023-270400-
NORTHEAST ILLINOIS

CITY           SKY/WX    TMP DP  RH WIND       PRES   REMARKS
CHICAGO-OHARE  PTCLDY    77  62  59 CALM      30.01R
CHICAGO-MIDWAY PTCLDY    81  61  50 VRB3      30.01R HX  82
AURORA         CLEAR     72  69  90 CALM      30.02R FOG
LANSING*       PTCLDY    76  60  56 SE3       30.02R
WAUKEGAN       CLEAR     70  64  81 CALM      30.00F
DUPAGE AIRPORT CLEAR     76  64  66 CALM      30.02R
KANKAKEE*      CLEAR     73  70  91 CALM      30.03R
WHEELING       CLEAR     75  64  68 CALM      30.03R
MORRIS*        MOCLDY    75  70  86 CALM      30.01R
NORTHERLY ISL    N/A     74  68  81 CALM        N/A
$$

LMZ740>746-270400-
SOUTHERN LAKE MICHIGAN

STATION/POSITION SKY/WX   TEMP    WIND        PRES    VSBY  WAVE
                          AIR SEA DIR/SP/G                  HT/PER
                          (F)     (DEG/KT/KT) (MB)    (MI)  (FT/S)
SOUTHERN BUOY              76 76  180/  4/  6 1015.3          0
WILMETTE HARBOR            73 71  210/  4/  4   N/A           0
HARRISON CRIB              77     140/  4/  5   N/A
BURNHAM HARBOR             74      CALM  /  3   N/A
CALUMET HARBOR             77                   N/A
BURNS HARBOR               76      90/  4/  5 1016.9S
MICHIGAN CITY              76      30/  6/  6   N/A
MICHIGAN CITY 6N           76 77   60/  4/  4   N/A           0
ST. JOSEPH                 76 78   20/  4/  6 1016.0S         0
$$

ILZ025>027-034>036-040-047-049-050-058-095>099-270400-
WEST-CENTRAL ILLINOIS

CITY           SKY/WX    TMP DP  RH WIND       PRES   REMARKS
QUINCY         CLEAR     75  69  81 NE5       30.01R
GALESBURG*     CLEAR     71  67  88 CALM      30.02R
MACOMB*        CLEAR     71  69  92 CALM      30.03S
JACKSONVILLE*  CLEAR     74  71  89 E3        30.01R
PITTSFIELD*    MOCLDY    75  73  91 CALM      30.02R
$$

ILZ028>032-037-038-041>044-048-051>054-059>061-270400-
CENTRAL ILLINOIS

CITY           SKY/WX    TMP DP  RH WIND       PRES   REMARKS
BLOOMINGTON    CLEAR     74  70  87 S3        30.04R
DECATUR        CLOUDY    71  68  90 NE3       30.03R
PEORIA         PTCLDY    79  71  76 S5        30.01R HX  82
LACON*         CLEAR     73  70  89 CALM      30.00S
LINCOLN*       CLEAR     74  72  95 CALM      30.02R
SPRINGFIELD    PTCLDY    76  71  85 NE3       30.02R
TAYLORVILLE    PTCLDY    72  70  94 MISG      30.02R
$$

ILZ033-039-045-046-055>057-062-063-270400-
EAST-CENTRAL ILLINOIS

CITY           SKY/WX    TMP DP  RH WIND       PRES   REMARKS
CHAMPAIGN      CLOUDY    73  68  84 N3        30.03R
MATTOON        PTCLDY    73  67  81 CALM      30.02R
PARIS*         CLOUDY    69  69 100 CALM      30.03R
$$

ILZ079-100>102-270400-
SOUTHWEST ILLINOIS

CITY           SKY/WX    TMP DP  RH WIND       PRES   REMARKS
ALTON          MOCLDY    75  73  94 CALM      29.98S
BELLEVILLE     PTCLDY    77  77  99 SE3       30.00R
CAHOKIA*       PTCLDY    78  74  87 S5        30.00R HX  81
SPARTA*        PTCLDY    74  73  93 NE3       30.02R
$$

ILZ064>066-069>071-074>076-080>082-084>086-088>090-092>094-270400-
SOUTH-CENTRAL ILLINOIS

CITY           SKY/WX    TMP DP  RH WIND       PRES   REMARKS
CARBONDALE     PTCLDY    76  74  93 NE3       30.01R
CAIRO*         CLOUDY    74  74  99 CALM      30.00S
EFFINGHAM*     MOCLDY    75  75  98 CALM      30.04R
MARION         LGT RAIN  77  75  94 CALM      30.02S
MT. VERNON     MOCLDY    75  70  83 MISG      30.02R
CENTRALIA*     PTCLDY    76  75  97 S5        30.01R
SALEM*         MOCLDY    81  75  84 CALM      30.01R HX  86
METROPOLIS*    CLOUDY    75  74  97 CALM      30.01S FOG
$$

ILZ067-068-072-073-078-083-087-091-270400-
SOUTHEAST ILLINOIS

CITY           SKY/WX    TMP DP  RH WIND       PRES   REMARKS
LAWRENCEVILLE  CLOUDY    77  74  90 NE6       30.01R
FLORA*         MOCLDY    78  76  92 CALM      30.02R HX  81
FAIRFIELD*     CLOUDY    75  74  97 CALM      30.01R
HARRISBURG*    MOCLDY    75  75 100 CALM      30.02R FOG
ROBINSON*      PTCLDY    73  72  98 CALM      30.03R
CARMI*         CLOUDY    75  75 100 CALM      30.01R FOG
$$

ABBREVIATIONS USED IN REMARKS
   TC - TEMPERATURE IN CELSIUS
  WCI - WIND CHILL INDEX
   HX - HEAT INDEX
  VSB - VISIBILITY
$$





USA.gov is the U.S. government's official web portal to all federal, state and local government web resources and services.